Details From LEZL - Sevilla
To LEGR - Granada
Flight Number -
Tags Routegen Generated
Created
Modified
Stats Distance 100 nm / 186 km
Max Altitude 300 ft / 91 m
Waypoints 5
Social Downloads 8
Likes 0
Share VATSIM

Download

Looking for another format? Having issues loading an existing format? Contact us
Advertisement - Login to hide

Notes

Departing runway 8 LEZL. Arriving runway 8 LEGR.

Route

LEZL +37.42_-005.78 +37.33_-005.01 +37.19_-003.88 LEGR

ID Type Via Altitude Latitude Longitude Leg Dist Tot Dist Heading (true) Name
O LEZL APT - 300 ft / 91 m 37.41800˚ -5.87410˚ - 0 nm - -
+37.42_-005.78 LATLON - 300 ft / 91 m 37.41826˚ -5.78299˚ 4 nm 4 nm 90° / 90° -
+37.33_-005.01 LATLON - 300 ft / 91 m 37.32712˚ -5.00917˚ 37 nm 41 nm 98° / 99° -
+37.19_-003.88 LATLON - 300 ft / 91 m 37.18792˚ -3.88455˚ 54 nm 96 nm 98° / 99° -
O LEGR APT - 0 ft / 0 m 37.18861˚ -3.79372˚ 4 nm 100 nm 89° / 89° -

Altitude Profile

Advertisement - Login to hide

LEZL

Details ICAO LEZL (SVQ)
Name Sevilla
Region Spain
Timezone Europe/Madrid (UTC+2.0)
Stats Elevation 111 ft / 34 m (AMSL)
Location 37.417939° -5.893093°
Runways 1
Magnetic Variation 1.371° W

METAR

LEZL 280416Z VRB06KT 6000 RA BKN007 SCT010 15/14 Q1009 NOSIG

Decode

TAF

TAF LEZL 280200Z 2803/2903 07010KT 9999 FEW015 SCT030 TX20/2814Z TN13/2806Z TEMPO 2803/2821 4000 SHRA FEW025CB BECMG 2812/2814 21010KT

Decode

Departure Runways

ID Width Length Bearing (true) Bearing (mag) Surface Threshold Offset Overrun Length
09 148 ft / 45 m 11,008 ft / 3,355 m 89.75° 91.12° Asphalt 0 ft / 0 m 0 ft / 0 m
27 148 ft / 45 m 11,008 ft / 3,355 m 269.77° 271.14° Asphalt 0 ft / 0 m 0 ft / 0 m

LEGR

Details ICAO LEGR (GRX)
Name Granada
Region Spain
Timezone Europe/Madrid (UTC+2.0)
Stats Elevation 1,859 ft / 567 m (AMSL)
Location 37.188731° -3.777359°
Runways 1
Magnetic Variation 0.748° W

METAR

LEGR 280400Z 14009KT 100V160 9999 -RA FEW020 BKN030 OVC070 12/10 Q1010

Decode

TAF

TAF LEGR 280200Z 2803/2903 VRB04KT 9999 FEW030 BKN050 TX19/2814Z TN09/2806Z BECMG 2804/2806 06010KT BECMG 2810/2812 17012KT PROB40 TEMPO 2803/2824 4000 SHRA FEW025CB

Decode

Destination Runways

ID Width Length Bearing (true) Bearing (mag) Surface Threshold Offset Overrun Length
09 147 ft / 45 m 9,511 ft / 2,899 m 89.46° 90.21° Asphalt 0 ft / 0 m 0 ft / 0 m
27 147 ft / 45 m 9,511 ft / 2,899 m 269.48° 270.23° Asphalt 0 ft / 0 m 0 ft / 0 m

Approach Navaids

Runway Type Ident Frequency Range Bearing (true) Bearing (mag) Slope Elevation
09 Localiser GRD 109.30 MHz 18 nm / 33 km 89.49° 90.23° - 1,859 ft / 567 m (AMSL)
09 Glidescope GRD 109.30 MHz 10 nm / 19 km 89.47° 90.22° 3.00° 1,859 ft / 567 m (AMSL)

Popular Alternatives